Regional Weather Roundup
Issued by NWS

Home | Current Version | Previous Version | Graphics & Text | Print | Product List | Glossary On
Versions: 1 2 3 4 5 6 7 8 9 10 11 12 13 14 15 16 17 18 19 20 21 22 23 24 25 26 27 28 29 30 31 32 33 34 35 36 37 38 39 40 41 42 43 44 45 46 47 48 49 50
000
ASUS43 KOAX 030802
RWRNE

WEATHER ROUNDUP FOR NEBRASKA
NATIONAL WEATHER SERVICE OMAHA NE
200 AM CST TUE MAR 03 2015

NOTES: SATELLITE DATA IS BEING USED TO AUGMENT CLOUD COVER ABOVE
       12000 FEET.
       "FAIR" INDICATES FEW OR NO CLOUDS BELOW 12,000 FEET WITH NO
       SIGNIFICANT WEATHER AND/OR OBSTRUCTIONS TO VISIBILITY.

  * THESE STATIONS DO NOT REPORT WEATHER SUCH AS RAIN...SNOW OR FOG.

NEZ001>004-019>022-054>056-030900-
NEBRASKA PANHANDLE

CITY           SKY/WX    TMP DP  RH WIND       PRES   REMARKS
SCOTTSBLUFF    LGT SNOW  30  27  88 CALM      29.58F FOG
ALLIANCE       LGT SNOW  29  27  92 N7        29.60S FOG     WCI  22
CHADRON        LGT SNOW  30  28  92 NE15      29.58F FOG     WCI  19
KIMBALL        CLOUDY    28  27  99 CALM      29.51S FOG
SIDNEY         FOG       29  27  92 SE5       29.57S VSB 1/4 WCI  24
$$

NEZ057>060-069>072-079>082-030900-
SOUTHWEST NEBRASKA

CITY           SKY/WX    TMP DP  RH WIND       PRES   REMARKS
NORTH PLATTE   CLOUDY    28  22  78 SE3       29.62F
IMPERIAL         N/A     28  24  85 N8        29.58S WCI  20
LEXINGTON      CLOUDY    29  23  77 S6        29.65S WCI  23
MCCOOK         CLOUDY    31  24  75 E8        29.60F WCI  23
$$

NEZ005>010-023>029-035>040-094-030900-
NORTH CENTRAL NEBRASKA

CITY           SKY/WX    TMP DP  RH WIND       PRES   REMARKS
VALENTINE      CLOUDY    31  25  78 S5        29.63F HAZE    WCI  26
AINSWORTH      CLOUDY    28  24  85 S7        29.63F WCI  21
BROKEN BOW     CLOUDY    29  20  69 S9        29.65F WCI  20
$$

NEZ041-046>049-061>064-073>077-083>087-030900-
SOUTH CENTRAL NEBRASKA

CITY           SKY/WX    TMP DP  RH WIND       PRES   REMARKS
GRAND ISLAND   CLOUDY    29  22  75 SE8       29.71F WCI  21
AURORA         CLOUDY    30  24  78 SE10      29.70F WCI  21
HASTINGS       CLOUDY    29  22  75 S8        29.68F WCI  21
HEBRON         CLOUDY    32  26  78 S12G17    29.72F WCI  23
KEARNEY *      CLOUDY    28  21  74 S8        29.67S WCI  20
$$

NEZ011>018-030>034-042>045-030900-
NORTHEAST NEBRASKA

CITY           SKY/WX    TMP DP  RH WIND       PRES   REMARKS
NORFOLK        CLOUDY    31  21  66 S10       29.73F WCI  22
ALBION         CLOUDY    30  20  67 S9        29.72S WCI  21
BLAIR          CLOUDY    32  22  67 SE12G20   29.77F WCI  23
COLUMBUS *     CLOUDY    30  18  59 S13       29.75F WCI  20
FREMONT        CLOUDY    32  24  72 SE13G18   29.77F WCI  23
TEKAMAH        CLOUDY    31  22  69 SE10      29.80F WCI  22
$$

NEZ050>053-065>068-078-088>093-030900-
SOUTHEAST NEBRASKA

CITY           SKY/WX    TMP DP  RH WIND       PRES   REMARKS
LINCOLN        CLOUDY    32  25  75 S13       29.77F WCI  22
OMAHA EPPLEY   CLOUDY    32  22  66 S15       29.80F WCI  22
BEATRICE       CLOUDY    31  29  90 S13G18    29.77F FOG     WCI  22
FALLS CITY     CLOUDY    34  26  72 S12       29.84F WCI  25
NEBRASKA CITY  MIX PCPN  32  26  77 S13G22    29.80F WCI  22
$$

NEZ044-045-051>053-067-030900-
OMAHA AREA

CITY           SKY/WX    TMP DP  RH WIND       PRES   REMARKS
OMAHA EPPLEY   CLOUDY    32  22  66 S15       29.80F WCI  22
BLAIR          CLOUDY    32  22  67 SE12G20   29.77F WCI  23
FREMONT        CLOUDY    32  24  72 SE13G18   29.77F WCI  23
OFFUTT AFB     CLOUDY    32  23  69 SE10      29.78F WCI  23
WAHOO          CLOUDY    32  23  70 S10       29.77F WCI  23
$$



USA.gov is the U.S. government's official web portal to all federal, state and local government web resources and services.